Vorticity
4 21 4 7 9 4 4 6 9 7 10 9 11 12 11 10 9 9 8 9 7 7
35 23 10 7 7 6 4 1 2 4 8 6 7 10 11 12 9 9 7 8 7 10
6 10 3 7 10 1 2 5 4 7 9 6 8 10 11 8 7 7 8 10 10 6
11 30 4 3 5 4 8 9 7 7 10 9 9 12 8 9 10 12 13 10 7 10
28 11 10 7 9 10 9 10 11 8 12 9 11 7 11 11 10 12 8 7 6 11
11 7 6 2 4 5 8 9 11 10 10 11 12 14 14 15 9 9 4 7 13 13
2 -4 -3 2 3 6 9 8 11 10 10 7 10 9 11 7 5 7 8 13 15 10
9 4 7 8 8 10 13 10 12 7 2 -4 4 19 8 8 7 7 13 21 5 12
6 5 11 6 14 9 12 -2 14 1 5 1 15 -1 23 -4 9 1 20 11 1 9
3 10 8 9 18 19 9 -9 12 13 8 20 13 1 -1 -11 8 8 18 2 11 -3
-3 3 2 8 11 27 18 10 6 17 38 -7 18 0 21 5 14 13 16 6 5 3
-0 4 3 16 9 6 5 10 13 8 11 23 -6 15 4 6 15 10 15 9 8 7
2 3 7 9 16 16 15 14 11 9 7 -0 6 7 -6 4 11 19 9 -4 4 4
8 10 6 13 11 10 14 17 19 20 19 16 13 14 3 26 12 8 11 0 5 9
Height
5622 5621 5622 5625 5629 5632 5634 5636 5638 5639 5639 5639 5641 5641 5641 5640 5640 5639 5638 5637 5636 5635
5604 5603 5607 5613 5617 5620 5623 5624 5626 5627 5629 5629 5630 5631 5631 5631 5630 5630 5629 5628 5626 5625
5589 5591 5596 5602 5605 5610 5612 5615 5616 5618 5619 5619 5620 5621 5621 5621 5621 5621 5619 5617 5616 5615
5580 5584 5588 5593 5596 5599 5603 5605 5606 5608 5610 5609 5610 5612 5612 5612 5612 5611 5610 5609 5607 5605
5570 5574 5577 5584 5587 5591 5592 5595 5596 5598 5601 5601 5602 5602 5603 5603 5603 5602 5601 5600 5598 5596
5558 5564 5571 5575 5579 5581 5584 5585 5587 5588 5591 5592 5593 5594 5595 5594 5594 5593 5592 5590 5589 5588
5555 5560 5562 5564 5568 5570 5573 5575 5578 5580 5579 5582 5584 5585 5586 5586 5586 5585 5583 5581 5580 5579
5547 5551 5553 5554 5558 5562 5564 5565 5568 5569 5571 5575 5575 5576 5577 5577 5577 5577 5575 5574 5573 5571
5537 5540 5542 5544 5549 5552 5554 5556 5557 5561 5564 5567 5567 5568 5568 5568 5568 5568 5567 5566 5565 5564
5527 5531 5533 5538 5542 5545 5546 5547 5552 5555 5553 5556 5557 5558 5558 5558 5558 5559 5558 5558 5558 5556
5521 5522 5525 5531 5533 5535 5537 5539 5542 5543 5543 5545 5547 5547 5548 5548 5549 5550 5549 5550 5549 5547
5512 5516 5517 5521 5524 5525 5527 5529 5531 5531 5534 5535 5535 5536 5537 5538 5539 5540 5540 5540 5540 5538
5504 5506 5510 5514 5516 5516 5519 5521 5521 5521 5523 5525 5525 5526 5527 5528 5529 5530 5530 5531 5531 5530
5498 5501 5504 5507 5509 5508 5510 5511 5511 5511 5512 5514 5514 5515 5517 5518 5519 5520 5521 5522 5521 5521